Showing default

FRONTIERSAT, 69015

Orbit data source: Space-Track

FRONTIERSAT, 69015 is a payload satellite owned by Calgary (CA) in SSO that was launched on Sun, 03 May 2026 UTC via an FALCON 9 launch vehicle from the Air Force Western Test Range (AFWTR). Payload-class satellites include a variety of spacecraft equipped with specific instruments for various scientific and technological missions. These include communications satellites like Starlink; space stations such as the ISS; scientific satellites like the Hubble; Earth observation satellites from companies like Planet Labs, Umbra, and HawkEye 360; GPS; miniature CubeSats for education and research; and military/defense satellites.

Loading next visibility...
Identifier
69015, 2026-100AM
Orbit
SSO
Country
Flag of CACA
Related business
Manufacturer
Calgary
Mission
Operational spacecraft
Bus & Motor
CUBESAT 3U, Unknown motor
Mass
~5 kg wet, ~5 kg dry
Launch date (UTC)
2026-05-03 (2 months ago)
Launch vehicle
FALCON 9
Launch site
Air Force Western Test Range (AFWTR)
Object type
Payload
Rocket body
Debris
Shape & HBR
Unknown shape, 1.1 m
Radar Cross Section
Medium (>0.1 m² and <1 m²)

Expand to show TLE details & history
Last TLE update: 1 day ago

TLE from 1 day ago
0 FRONTIERSAT
1 69015U 26100AM  26174.96464520  .00007033  00000-0  31263-3 0  9997
2 69015  97.3999  72.7137 0009040  32.3398 327.8390 15.21784603  7856
Epoch: 2026-06-23T23:09Z
TLE epoch observation values (Epoch: 2026-06-23T23:09:05.345Z)
Latitude
-0.00007°
Longitude
173.31278°
Altitude
498.287 km
Speed
7.618 km/s
True Right ascension
04h 50m 51s
True Declination
0° 00' 00"
Sunlit
Object was in daylight at epoch
Visualization orbit readout
Latitude
Unknown
Longitude
Unknown
Altitude
Unknown
Speed
Unknown
Apparent Right ascension
Unknown
Apparent Declination
Unknown
Sunlit
N/A
Visualization observer readout
Local Sidereal Time
18:26:43
Azimuth
Unknown
Elevation
Unknown
Doppler factor
Unknown
Orbital elements
Apogee altitude
503.636 km
Perigee altitude
491.205 km
Semi-major axis
6,875.558 km
Eccentricity
0.0009
Inclination
97.3999°
RAAN
72.7137°
Arg. of periapsis
32.3398°
True anomaly
327.78381°
Mean anomaly
327.839°
Eccentric anomaly
327.81141°
Mean motion
3.80699 °/min
Orbital period
94.56 mins
BSTAR
0.00031263
Loading maneuver chart data...
Computing Atmospheric mass density...
Loading historical data...
Loading historical data...
Loading historical data...
Loading historical data...
Loading historical data...
Loading historical data...
Loading historical data...

Documentation

Showing up to 5 results
|